Date String (YYYY-MM-DD hh:mm:ss) UTC,Instrument flags,Ambient pressure (hPa),Sample flow (lpm),Bypass flow (lpm),Sample temperature (°C),Ambient temperature (°C),ASC tube jacket temperature (°C),LED temperature (°C),Box temperature (°C),Sample RH (%),Span deviation,Mass concentration (μg/m³),Mass concentration (μg/m³),Mass concentration (μg/m³)
DateTimeUTC,F1_M11,P_M11,Q1_M11,Q2_M11,T1_M11,T2_M11,T3_M11,T4_M11,T5_M11,U1_M11,ZSPAN_M11,X0_M11,X2_M11,X1_M11
2022-06-11 05:00:00,,0824.7,5.00,0.00,29.0,27.4,00.0,37.9,30.8,16.3,0000.0,0014.45,0005.24,0003.51
2022-06-11 05:01:00,,0824.7,5.00,0.00,29.0,27.5,00.0,37.9,30.9,16.4,0000.0,0014.94,0005.25,0003.51
2022-06-11 05:02:00,,0824.7,5.00,0.00,29.0,27.6,00.0,37.9,30.9,16.5,0000.0,0014.82,0005.28,0003.50
2022-06-11 05:03:00,,0824.7,5.00,0.00,29.0,27.7,00.0,37.9,30.9,16.7,0000.0,0014.82,0005.26,0003.50
2022-06-11 05:04:00,,0824.7,4.98,0.00,29.1,27.8,00.0,37.9,31.0,16.6,0000.0,0015.11,0005.26,0003.49
2022-06-11 05:05:00,,0824.6,5.00,0.00,29.1,27.9,00.0,38.0,31.0,16.6,0000.0,0015.52,0005.24,0003.48
2022-06-11 05:06:00,,0824.6,5.01,0.00,29.1,28.0,00.0,38.0,31.0,16.7,0000.0,0015.30,0005.22,0003.48
2022-06-11 05:07:00,,0824.6,5.00,0.00,29.1,28.1,00.0,38.0,31.1,16.3,0000.0,0014.97,0005.19,0003.47
2022-06-11 05:08:00,,0824.5,4.99,0.00,29.1,28.2,00.0,38.0,31.1,16.2,0000.0,0014.74,0005.17,0003.47
2022-06-11 05:09:00,,0824.5,4.99,0.00,29.2,28.2,00.0,38.0,31.1,16.2,0000.0,0015.25,0005.22,0003.46
2022-06-11 05:10:00,,0824.5,5.00,0.00,29.2,28.3,00.0,38.0,31.1,16.3,0000.0,0015.01,0005.28,0003.47
2022-06-11 05:11:00,,0824.7,5.01,0.00,29.2,28.3,00.0,38.0,31.2,16.2,0000.0,0013.79,0005.23,0003.48
2022-06-11 05:12:00,,0824.7,5.00,0.00,29.2,28.4,00.0,38.0,31.2,16.0,0000.0,0013.08,0005.21,0003.48
2022-06-11 05:13:00,,0824.5,5.00,0.00,29.3,28.4,00.0,38.1,31.2,16.0,0000.0,0013.12,0005.22,0003.47
2022-06-11 05:14:00,,0824.6,4.99,0.00,29.3,28.5,00.0,38.1,31.3,16.1,0000.0,0013.22,0005.25,0003.49
2022-06-11 05:15:00,,0824.7,4.99,0.00,29.3,28.5,00.0,38.1,31.3,16.2,0000.0,0013.16,0005.26,0003.49
2022-06-11 05:16:00,,0824.6,5.00,0.00,29.3,28.0,00.0,38.1,31.2,16.0,0000.0,0013.06,0005.32,0003.49
2022-06-11 05:17:00,,0824.5,5.00,0.00,29.2,27.3,00.0,38.0,30.9,16.1,0000.0,0013.49,0005.36,0003.50
2022-06-11 05:18:00,,0824.6,5.00,0.00,29.2,27.1,00.0,38.0,30.9,16.0,0000.0,0013.72,0005.40,0003.49
2022-06-11 05:19:00,,0824.7,4.99,0.00,29.1,27.1,00.0,38.0,30.8,15.9,0000.0,0013.73,0005.40,0003.48
2022-06-11 05:20:00,,0824.6,5.01,0.00,29.0,27.2,00.0,38.0,30.8,15.9,0000.0,0013.07,0005.36,0003.48
2022-06-11 05:21:00,,0824.4,5.00,0.00,29.0,27.3,00.0,38.0,30.9,16.0,0000.0,0012.75,0005.26,0003.47
2022-06-11 05:22:00,,0824.4,5.01,0.00,29.0,27.4,00.0,38.0,30.9,15.9,0000.0,0012.76,0005.24,0003.46
2022-06-11 05:23:00,,0824.5,5.00,0.00,29.0,27.6,00.0,38.0,30.9,16.0,0000.0,0012.85,0005.21,0003.46
2022-06-11 05:24:00,,0824.6,4.99,0.00,29.0,27.7,00.0,38.0,30.9,16.2,0000.0,0013.11,0005.15,0003.46
2022-06-11 05:25:00,,0824.6,5.00,0.00,29.1,27.8,00.0,38.0,31.0,16.1,0000.0,0013.34,0005.14,0003.43
2022-06-11 05:26:00,,0824.4,5.00,0.00,29.1,27.9,00.0,38.0,31.0,15.9,0000.0,0013.44,0005.10,0003.42
2022-06-11 05:27:00,,0824.8,5.00,0.00,29.1,28.0,00.0,38.0,31.0,15.7,0000.0,0013.81,0005.06,0003.43
2022-06-11 05:28:00,,0824.7,5.01,0.00,29.1,28.1,00.0,38.0,31.0,15.5,0000.0,0013.52,0005.05,0003.42
2022-06-11 05:29:00,,0824.4,5.00,0.00,29.1,28.1,00.0,38.0,31.1,15.4,0000.0,0014.05,0005.02,0003.41
2022-06-11 05:30:00,,0824.5,5.00,0.00,29.1,28.2,00.0,38.0,31.1,15.4,0000.0,0013.89,0005.01,0003.41
2022-06-11 05:31:00,,0824.6,5.00,0.00,29.2,28.2,00.0,38.0,31.1,15.4,0000.0,0014.58,0005.06,0003.42
2022-06-11 05:32:00,,0824.5,4.99,0.00,29.2,28.3,00.0,38.0,31.2,15.6,0000.0,0015.09,0005.23,0003.44
2022-06-11 05:33:00,,0824.6,5.00,0.00,29.2,28.3,00.0,38.0,31.2,15.7,0000.0,0015.16,0005.30,0003.45
2022-06-11 05:34:00,,0824.6,5.01,0.00,29.2,28.4,00.0,38.1,31.2,15.7,0000.0,0015.43,0005.35,0003.45
2022-06-11 05:35:00,,0824.5,5.01,0.00,29.3,28.4,00.0,38.1,31.2,15.8,0000.0,0015.84,0005.48,0003.46
2022-06-11 05:36:00,,0824.5,5.00,0.00,29.3,28.5,00.0,38.1,31.2,15.7,0000.0,0015.56,0005.46,0003.49
2022-06-11 05:37:00,,0824.6,5.00,0.00,29.3,28.5,00.0,38.1,31.3,15.9,0000.0,0015.53,0005.53,0003.51
2022-06-11 05:38:00,,0824.5,5.00,0.00,29.3,28.5,00.0,38.1,31.3,16.3,0000.0,0015.21,0005.56,0003.53
2022-06-11 05:39:00,,0824.8,5.00,0.00,29.4,28.4,00.0,38.1,31.3,16.9,0000.0,0015.77,0005.54,0003.55
2022-06-11 05:40:00,,0824.8,5.00,0.00,29.3,27.6,00.0,38.1,31.1,17.0,0000.0,0015.09,0005.55,0003.57
2022-06-11 05:41:00,,0824.7,5.01,0.00,29.2,27.2,00.0,38.0,31.0,17.0,0000.0,0015.26,0005.60,0003.57
2022-06-11 05:42:00,,0824.6,4.99,0.00,29.2,27.1,00.0,38.0,30.9,16.8,0000.0,0014.88,0005.63,0003.58
2022-06-11 05:43:00,,0824.5,4.99,0.00,29.1,27.2,00.0,38.0,30.8,16.9,0000.0,0014.46,0005.52,0003.58
2022-06-11 05:44:00,,0824.6,4.99,0.00,29.1,27.3,00.0,38.0,30.9,16.5,0000.0,0014.50,0005.51,0003.58
2022-06-11 05:45:00,,0824.6,5.00,0.00,29.1,27.4,00.0,38.0,30.9,16.4,0000.0,0014.75,0005.51,0003.59
2022-06-11 05:46:00,,0824.6,5.01,0.00,29.1,27.5,00.0,38.0,30.9,17.2,0000.0,0014.06,0005.47,0003.58
2022-06-11 05:47:00,,0824.6,5.00,0.00,29.1,27.6,00.0,38.0,30.9,16.7,0000.0,0014.74,0005.44,0003.58
2022-06-11 05:48:00,,0824.6,5.00,0.00,29.1,27.8,00.0,38.0,31.0,17.0,0000.0,0014.36,0005.39,0003.58
2022-06-11 05:49:00,,0824.5,4.98,0.00,29.1,27.9,00.0,38.0,31.0,16.5,0000.0,0014.76,0005.33,0003.57
2022-06-11 05:50:00,,0824.7,5.00,0.00,29.1,27.9,00.0,38.0,31.0,16.2,0000.0,0015.28,0005.34,0003.57
2022-06-11 05:51:00,,0824.8,5.01,0.00,29.1,28.0,00.0,38.0,31.0,15.9,0000.0,0015.91,0005.38,0003.59
2022-06-11 05:52:00,,0824.5,5.00,0.00,29.1,28.1,00.0,38.0,31.1,15.7,0000.0,0015.88,0005.33,0003.59
2022-06-11 05:53:00,,0824.6,5.00,0.00,29.2,28.2,00.0,38.0,31.1,16.0,0000.0,0015.93,0005.24,0003.58
2022-06-11 05:54:00,,0824.5,5.01,0.00,29.2,28.2,00.0,38.0,31.1,15.8,0000.0,0016.09,0005.25,0003.59
2022-06-11 05:55:00,,0824.7,5.01,0.00,29.2,28.3,00.0,38.0,31.2,15.8,0000.0,0016.12,0005.22,0003.59
2022-06-11 05:56:00,,0824.6,5.00,0.00,29.2,28.3,00.0,38.0,31.2,16.0,0000.0,0015.95,0005.21,0003.60
2022-06-11 05:57:00,,0824.7,5.00,0.00,29.3,28.4,00.0,38.1,31.2,16.3,0000.0,0015.88,0005.25,0003.60
2022-06-11 05:58:00,,0824.5,5.00,0.00,29.3,28.4,00.0,38.1,31.2,16.0,0000.0,0015.37,0005.24,0003.59
2022-06-11 05:59:00,,0824.9,5.00,0.00,29.3,28.5,00.0,38.1,31.2,16.1,0000.0,0015.81,0005.29,0003.58
